Location: Heidgraben
(53.7081°N, 9.6576°E)
Time: 10:51:30
(UTC+00:00)

USA 215 - Pass Details

Date: 05 July 2020
Orbit: 1102 x 1106 km, 123.0° (Epoch: 31 July)

Event Time Altitude Azimuth Distance (km) Brightness Sun altitude
Rises 22:39:55 0° 65° (ENE) 3,926 6.3 -13.0°
Reaches altitude 10° 22:42:24 10° 66° (ENE) 2,967 5.7 -13.0°
Maximum altitude 22:48:58 90° 152° (SSE) 1,109 3.3 -13.2°
Drops below altitude 10° 22:55:32 10° 248° (WSW) 2,959 5.4 -13.3°
Sets 22:58:00 0° 249° (WSW) 3,916 6.0 -13.4°
